Location: Penton Mewsey
(51.2167°N, 1.5167°W)
Time: 04:01:17
(UTC+00:00)

CZ-4C R/B - Pass Details

Date: 30 March 2020
Orbit: 636 x 1365 km, 63.4° (Epoch: 06 June)

Event Time Altitude Azimuth Distance (km) Brightness Sun altitude
Rises 20:37:20 0° 289° (WNW) 3,388 6.8 -18.5°
Reaches altitude 10° 20:40:00 10° 301° (WNW) 2,564 6.0 -18.8°
Maximum altitude 20:45:10 28° 0° (N) 1,784 4.2 -19.5°
Drops below altitude 10° 20:51:10 10° 58° (ENE) 3,016 4.8 -20.3°
Enters shadow 20:53:25 - 66° (ENE) 3,720 5.3 -20.5°
